Weather Roundup
Issued by NWS Springfield, MO

Home | Current Version | Previous Version | Text Only | Print | Product List | Glossary On
Versions: 1 2 3 4 5 6 7 8 9 10 11 12 13 14 15 16 17 18 19 20 21 22 23 24 25 26 27 28 29 30 31 32 33 34 35 36 37 38 39 40 41 42 43 44 45 46 47 48 49 50
000
NZUS99 KSGF 040410
HRRSGF

HOURLY WEATHER
NATIONAL WEATHER SERVICE SPRINGFIELD MO
1100 PM CDT MON AUG 03 2015

......SGF CWA......

CITY           SKY/WX    TMP DP  RH WIND       PRES   REMARKS
SPRINGFIELD    PTCLDY    76  67  73 SW6       29.97S
JOPLIN         MOCLDY    76  67  73 S3        29.96R
WEST PLAINS    CLEAR     75  70  84 CALM      30.00R
ROLLA          CLEAR     73  69  87 SE3       29.96R
OSAGE BEACH    CLEAR     75  72  88 CALM      29.96R
BRANSON        CLEAR     77  68  73 CALM      30.00S

......SURROUNDING SGF CWA......

CITY           SKY/WX    TMP DP  RH WIND       PRES   REMARKS
CHANUTE        PTCLDY    74  68  81 S7        29.95R
PARSONS        PTCLDY    71  69  93 CALM      29.95R
COFFEYVILLE      N/A     75  69  81 SE3       29.93S
EMPORIA        MOCLDY    77  68  73 S8        29.93R
GROVE OK       PTCLDY    73  72  94 CALM      29.96S
ROGERS AR      CLEAR     75  70  84 SE6       29.99F
SILOAM SPRINGS CLEAR     73  64  73 CALM      29.98S
HARRISON AR    CLEAR     76  67  73 W3        30.00S
NEAR YELLVILLE PTCLDY    77  72  83 CALM      29.95R

......KANSAS AND MISSOURI......

CITY           SKY/WX    TMP DP  RH WIND       PRES   REMARKS
KANSAS CTY INT PTCLDY    76  68  76 E7        29.95R
DOWNTOWN KC    PTCLDY    78  70  76 E6        29.93R
COLUMBIA       PTCLDY    77  70  79 NE6       29.96R
SEDALIA        PTCLDY    78  71  79 E5        29.96R
ST JOSEPH      PTCLDY    75  68  78 E5        29.95R
ST LOUIS       MOCLDY    82  68  62 NE5       29.95R
SPIRIT OF STL  CLEAR     75  72  90 CALM      29.93R
KIRKSVILLE     PTCLDY    69  65  86 CALM      29.98R
WICHITA        PTCLDY    80  69  69 S9        29.94R
TOPEKA         PTCLDY    78  71  79 E6        29.93R
OLATHE         PTCLDY    78  71  79 E6        29.94R

......TENNESSEE......

CITY           SKY/WX    TMP DP  RH WIND       PRES   REMARKS
MEMPHIS        MOCLDY    86  68  54 CALM      29.94S
NASHVILLE      CLEAR     80  69  69 CALM      29.95S

......ARKANSAS.......

CITY           SKY/WX    TMP DP  RH WIND       PRES   REMARKS
FAYETTEVILLE   CLEAR     72  70  93 CALM      29.99R
FT SMITH       PTCLDY    82  72  71 NE3       29.93R
LITTLE ROCK    MOCLDY    82  71  69 CALM      29.94R

......OKLAHOMA.......

CITY           SKY/WX    TMP DP  RH WIND       PRES   REMARKS
TULSA          MOCLDY    83  69  62 SE7       29.92R
PONCA CITY     PTCLDY    77  66  68 CALM      29.93S
MCALESTER      MOCLDY    82  66  58 E3        29.93S
OKLAHOMA CITY  CLOUDY    77  68  73 SE7       29.93R

......IOWA............

CITY           SKY/WX    TMP DP  RH WIND       PRES   REMARKS
DES MOINES     PTCLDY    73  57  57 N3        29.96S
QUAD CITIES    CLEAR     64  57  78 SW3       29.95R

......ILLINOIS........

CITY           SKY/WX    TMP DP  RH WIND       PRES   REMARKS
QUINCY         PTCLDY    71  65  81 N6        29.96S
CHICAGO        CLEAR     69  55  60 W6        29.90S



USA.gov is the U.S. government's official web portal to all federal, state and local government web resources and services.